WetterOnline ( https://www.wetteronline.de )

Wetter aktuell Kielce

Aktuelles Wetter: Kielce (261m)

6-stündlich | Neueste Meldungen
Ortszeit Temperatur Wetter
Fr, 21.02. 7:00 0.3° C bewölkt
Fr, 21.02. 1:00 -1.9° C leicht bewölkt
Do, 20.02. 19:00 0.7° C wolkig
Do, 20.02. 13:00 3.8° C bewölkt
Do, 20.02. 7:00 0.4° C leichte Schneeschauer
Do, 20.02. 1:00 2.9° C bedeckt
Mi, 19.02. 19:00 4.9° C leichter Regen
Mi, 19.02. 13:00 7.7° C wolkig
Ortszeit Temperatur Wetter
Fr, 21.02. 12:00 2.7° C leichter Regen
Fr, 21.02. 11:00 0.6° C Schneeregen
Fr, 21.02. 10:00 0.2° C starker Schneefall
Fr, 21.02. 9:00 0.2° C Schneefall
Fr, 21.02. 8:00 0.6° C leichter Schneefall
Fr, 21.02. 7:00 0.3° C bewölkt
Ortszeit Relative Feuchte Sichtweite
Fr, 21.02. 7:00 82% 20 km
Fr, 21.02. 1:00 97% 3.0 km
Do, 20.02. 19:00 91% 14 km
Do, 20.02. 13:00 82% 30 km
Do, 20.02. 7:00 97% 3.0 km
Do, 20.02. 1:00 88% 21 km
Mi, 19.02. 19:00 81% 15 km
Mi, 19.02. 13:00 59% 28 km
Ortszeit Relative Feuchte Sichtweite
Fr, 21.02. 12:00 93% 6 km
Fr, 21.02. 11:00 98% 2.0 km
Fr, 21.02. 10:00 98% 1.0 km
Fr, 21.02. 9:00 95% 1.5 km
Fr, 21.02. 8:00 81% 17 km
Fr, 21.02. 7:00 82% 20 km
Ortszeit Niederschlagsmenge Niederschlagsart
Fr, 21.02. 7:00 0.0 l/m2 in 12 Std. -
Fr, 21.02. 1:00 0.0 l/m2 in 6 Std. -
Do, 20.02. 19:00 1 l/m2 in 12 Std. -
Do, 20.02. 13:00 1 l/m2 in 6 Std. Schauer
Do, 20.02. 7:00 1 l/m2 in 12 Std. Schauer
Do, 20.02. 1:00 0.1 l/m2 in 6 Std. Regenschauer
Mi, 19.02. 19:00 0.1 l/m2 in 12 Std. Schauer
Mi, 19.02. 13:00 0.0 l/m2 in 6 Std. -
Ortszeit Niederschlagsmenge Niederschlagsart
Fr, 21.02. 12:00 keine Meldung -
Fr, 21.02. 11:00 keine Meldung -
Fr, 21.02. 10:00 keine Meldung -
Fr, 21.02. 9:00 keine Meldung -
Fr, 21.02. 8:00 keine Meldung -
Fr, 21.02. 7:00 keine Meldung -
Ortszeit Stärke Spitze Richtung
km/h Bft. km/h Grad Sektor
Fr, 21.02. 7:00 14 3 - 150° SO
Fr, 21.02. 1:00 7 2 - 130° SO
Do, 20.02. 19:00 4 1 - 110° O
Do, 20.02. 13:00 14 3 - 300° NW
Do, 20.02. 7:00 4 1 - 250° W
Do, 20.02. 1:00 11 2 32 280° W
Mi, 19.02. 19:00 11 2 40 230° SW
Mi, 19.02. 13:00 18 3 - 230° SW
Ortszeit Stärke Spitze Richtung
km/h Bft. km/h Grad Sektor
Fr, 21.02. 12:00 22 4 - 290° W
Fr, 21.02. 11:00 7 2 - 230° SW
Fr, 21.02. 10:00 7 2 - 170° S
Fr, 21.02. 9:00 11 2 - 180° S
Fr, 21.02. 8:00 11 2 - 160° S
Fr, 21.02. 7:00 14 3 - 150° SO
Ortszeit Untergrenze Bedeckung Gattung
total tief tief mittel hoch
Fr, 21.02. 7:00 - 7/8 7/8 Sc - -
Fr, 21.02. 1:00 - 3/8 0/8 - - Cs
Do, 20.02. 19:00 - 6/8 6/8 Sc - -
Do, 20.02. 13:00 330 m 7/8 7/8 Sc - -
Do, 20.02. 7:00 180 m 8/8 8/8 Cb - -
Do, 20.02. 1:00 330 m 8/8 8/8 Sc - -
Mi, 19.02. 19:00 - 8/8 6/8 Sc As -
Mi, 19.02. 13:00 - 7/8 4/8 Cu Ac Cs
Ortszeit Bedeckungsgrad in Achtel und Wolkenuntergrenze
Fr, 21.02. 12:00 4(270m) 6(330m)
Fr, 21.02. 11:00 7(120m)
Fr, 21.02. 10:00 5(90m) 7(300m) 8
Fr, 21.02. 9:00 4(270m) 8(360m)
Fr, 21.02. 8:00 8
Fr, 21.02. 7:00 7
Ortszeit Luftdruck NN (hPa) Tendenz (hPa in 3 Std.)
Fr, 21.02. 7:00 1015 - 2,7
Fr, 21.02. 1:00 1020 - 2,0
Do, 20.02. 19:00 1023 0,0
Do, 20.02. 13:00 1023 + 0,1
Do, 20.02. 7:00 1021 + 1,5
Do, 20.02. 1:00 1018 + 1,4
Mi, 19.02. 19:00 1015 + 1,1
Mi, 19.02. 13:00 1015 - 2,6
Ortszeit Luftdruck NN (hPa) Tendenz (hPa in 3 Std.)
Fr, 21.02. 12:00 1016 + 1,2
Fr, 21.02. 11:00 1016 + 1,1
Fr, 21.02. 10:00 1015 + 0,5
Fr, 21.02. 9:00 1015 - 0,4
Fr, 21.02. 8:00 1014 - 1,8
Fr, 21.02. 7:00 1015 - 2,7
Ortszeit Schneehöhe (cm)
Fr, 21.02. 7:00 -
Fr, 21.02. 1:00 -
Do, 20.02. 19:00 -
Do, 20.02. 13:00 -
Do, 20.02. 7:00 0
Do, 20.02. 1:00 -
Mi, 19.02. 19:00 -
Mi, 19.02. 13:00 -
Ortszeit Schneehöhe (cm)
Fr, 21.02. 12:00 -
Fr, 21.02. 11:00 -
Fr, 21.02. 10:00 -
Fr, 21.02. 9:00 -
Fr, 21.02. 8:00 -
Fr, 21.02. 7:00 -
Link zu dieser Seite / Seite empfehlen

Das Wetter in ...